CW1740 Weather Reports


Display with metric or nautical units.
time (UTC)temp
F
wind
direction
speed
MPH
gust
MPH
rain 1hr
in
rain 24hr
in
rain mn
in
humidity
%
barometer
mb
20260906011524 77 360 0.0 8.0 0.00 0.00 0.00 87 1012.9
20260906010041 78 360 1.0 9.0 0.00 0.00 0.00 86 1012.9
20260906004523 78 360 0.0 6.0 0.00 0.00 0.00 85 1012.7
20260906003022 80 360 0.0 6.0 0.00 0.00 0.00 83 1012.5
20260906001530 81 360 0.0 1.0 0.00 0.00 0.00 82 1012.4
20260906000023 82 360 0.0 4.0 0.00 0.00 0.00 80 1012.5
20260905234521 83 360 0.0 4.0 0.00 0.00 0.00 78 1012.3
20260905233021 84 360 0.0 6.0 0.00 0.00 0.00 77 1012.0
20260905231520 85 360 0.0 1.0 0.00 0.00 0.00 77 1011.8
20260905230031 86 360 0.0 5.0 0.00 0.00 0.00 76 1011.8
20260905224520 86 360 0.0 5.0 0.00 0.00 0.00 76 1011.8
20260905223018 87 360 0.0 6.0 0.00 0.00 0.00 76 1011.8
20260905221517 89 360 0.0 5.0 0.00 0.00 0.00 73 1011.8
20260905220022 90 360 0.0 4.0 0.00 0.00 0.00 72 1011.6
20260905214517 90 360 0.0 1.0 0.00 0.00 0.00 70 1011.5
20260905213016 91 360 0.0 2.0 0.00 0.00 0.00 68 1011.5
20260905211539 91 360 0.0 9.0 0.00 0.00 0.00 69 1011.4
20260905210017 91 360 0.0 3.0 0.00 0.00 0.00 70 1011.4
20260905204515 91 360 0.0 2.0 0.00 0.00 0.00 70 1011.5
20260905203015 90 360 0.0 2.0 0.00 0.00 0.00 72 1011.8
20260905201515 91 360 0.0 2.0 0.00 0.00 0.00 69 1011.8
20260905200014 91 360 0.0 1.0 0.00 0.00 0.00 73 1011.8
20260905194514 91 360 0.0 1.0 0.00 0.00 0.00 71 1011.8
20260905193012 91 360 0.0 1.0 0.00 0.00 0.00 68 1011.9
20260905191511 91 360 0.0 2.0 0.00 0.00 0.00 68 1012.0
20260905190013 91 360 0.0 1.0 0.00 0.00 0.00 70 1012.1
20260905184509 91 360 0.0 3.0 0.00 0.00 0.00 72 1012.2
20260905183008 90 360 0.0 2.0 0.00 0.00 0.00 70 1012.3
20260905181507 91 360 0.0 1.0 0.00 0.00 0.00 71 1012.4
20260905180004 91 360 0.0 0.0 0.00 0.00 0.00 71 1012.4
20260905174503 90 360 0.0 3.0 0.00 0.00 0.00 72 1012.5
20260905173105 90 360 0.0 1.0 0.00 0.00 0.00 71 1012.6
20260905171559 90 360 0.0 1.0 0.00 0.00 0.00 73 1012.6
20260905170059 89 360 0.0 1.0 0.00 0.00 0.00 72 1012.8
20260905164555 89 360 0.0 2.0 0.00 0.00 0.00 74 1012.9
20260905163052 89 360 0.0 2.0 0.00 0.00 0.00 75 1012.8
20260905161550 88 360 0.0 2.0 0.00 0.00 0.00 75 1012.9
20260905160047 88 360 0.0 0.0 0.00 0.00 0.00 77 1012.9
20260905154545 88 360 0.0 1.0 0.00 0.00 0.00 77 1012.8
20260905153042 87 360 0.0 1.0 0.00 0.00 0.00 75 1012.6
20260905151546 87 360 0.0 0.0 0.00 0.00 0.00 75 1012.7
20260905150036 86 360 0.0 1.0 0.00 0.00 0.00 77 1012.6
20260905144532 85 360 0.0 1.0 0.00 0.00 0.00 76 1012.5
20260905143032 85 360 0.0 1.0 0.00 0.00 0.00 77 1012.4
20260905141528 84 360 0.0 1.0 0.00 0.00 0.00 80 1012.2
20260905140021 83 360 0.0 0.0 0.00 0.00 0.00 81 1012.3
20260905134517 82 360 0.0 0.0 0.00 0.00 0.00 85 1012.3
20260905133013 81 360 0.0 1.0 0.00 0.00 0.00 87 1012.3
20260905131509 79 360 0.0 0.0 0.00 0.00 0.00 90 1012.3
20260905130004 78 360 0.0 0.0 0.00 0.00 0.00 92 1012.2
20260905124502 76 360 0.0 0.0 0.00 0.00 0.00 94 1012.0
20260905123058 75 360 0.0 0.0 0.00 0.00 0.00 95 1012.0
20260905121556 75 360 0.0 1.0 0.00 0.00 0.00 95 1011.9
20260905120051 74 360 0.0 0.0 0.00 0.00 0.00 95 1011.6
20260905114550 74 360 0.0 0.0 0.00 0.00 0.00 95 1011.4
20260905113049 74 360 0.0 0.0 0.00 0.00 0.00 94 1011.4
20260905111547 75 360 0.0 0.0 0.00 0.00 0.00 94 1011.4
20260905110105 75 360 0.0 0.0 0.00 0.00 0.00 95 1011.3
20260905104545 75 360 0.0 0.0 0.00 0.00 0.00 94 1011.3
20260905103049 75 360 0.0 0.0 0.00 0.00 0.00 94 1011.4
20260905101601 75 360 0.0 0.0 0.00 0.00 0.00 94 1011.4
20260905100044 75 360 0.0 0.0 0.00 0.00 0.00 95 1011.3
20260905094543 76 360 0.0 0.0 0.00 0.00 0.00 95 1011.5
20260905093044 76 360 0.0 0.0 0.00 0.00 0.00 95 1011.5
20260905091551 76 360 0.0 0.0 0.00 0.00 0.00 95 1011.5
20260905090040 75 360 0.0 0.0 0.00 0.00 0.00 95 1011.4
20260905084540 75 360 0.0 1.0 0.00 0.00 0.00 95 1011.5
20260905083037 75 360 0.0 0.0 0.00 0.00 0.00 94 1011.7
20260905081536 75 360 0.0 0.0 0.00 0.00 0.00 94 1011.6
20260905080035 76 360 0.0 0.0 0.00 0.00 0.00 94 1011.7
20260905074536 76 360 0.0 0.0 0.00 0.00 0.00 94 1011.7
20260905073034 75 360 0.0 0.0 0.00 0.00 0.00 94 1011.7
20260905071535 76 360 0.0 0.0 0.00 0.00 0.00 94 1011.8
20260905070035 76 360 0.0 0.0 0.00 0.00 0.00 94 1011.9
20260905064530 76 360 0.0 0.0 0.00 0.00 0.00 94 1011.9
20260905063029 76 360 0.0 0.0 0.00 0.00 0.00 94 1011.9
20260905061527 76 360 0.0 0.0 0.00 0.00 0.00 93 1012.0
20260905060026 76 360 0.0 0.0 0.00 0.00 0.00 93 1012.1
20260905054531 77 360 0.0 0.0 0.00 0.00 0.00 93 1012.3
20260905053023 77 360 0.0 0.0 0.00 0.00 0.00 92 1012.3
20260905051520 77 360 0.0 0.0 0.00 0.00 0.00 92 1012.1
20260905050023 77 360 0.0 0.0 0.00 0.00 0.00 92 1012.2
20260905044520 77 360 0.0 0.0 0.00 0.00 0.00 92 1012.1
20260905043021 77 360 0.0 0.0 0.00 0.00 0.00 92 1012.2
20260905041519 78 360 0.0 0.0 0.00 0.00 0.00 92 1012.1
20260905040029 78 360 0.0 0.0 0.00 0.00 0.00 91 1012.0
20260905034526 78 360 0.0 0.0 0.00 0.00 0.00 91 1011.9
20260905033016 78 360 0.0 0.0 0.00 0.00 0.00 90 1012.1
20260905031516 79 360 0.0 0.0 0.00 0.00 0.00 90 1012.0
20260905030016 79 360 0.0 0.0 0.00 0.00 0.00 90 1012.0
20260905024517 80 360 0.0 0.0 0.00 0.00 0.00 89 1011.9
20260905023016 80 360 0.0 0.0 0.00 0.00 0.00 87 1011.8
20260905021513 81 360 0.0 0.0 0.00 0.00 0.00 86 1011.9
20260905020020 81 360 0.0 0.0 0.00 0.00 0.00 86 1011.8
20260905014513 82 360 0.0 0.0 0.00 0.00 0.00 84 1011.7
20260905013015 83 360 0.0 0.0 0.00 0.00 0.00 83 1011.6